Location: Unspecified
(43.8044°N, 11.0278°E)
Time: 05:41:01
(UTC+02:00)

CZ-3 Stage 3 - Visible Passes

Search period start: 27 June 2017 00:00
Search period end: 07 July 2017 00:00
Orbit: 418 x 34780 km, 30.9° (Epoch: 26 June)

Date Brightness Start Highest point End Pass type
(mag) Time Alt. Az. Time Alt. Az. Time Alt. Az.
27 Jun 10.0 22:26:29 10° WNW 23:35:54 25° W 02:13:39 10° W visible
28 Jun 9.1 18:30:11 10° W 19:34:03 63° SSW 02:30:07 10° SW visible
29 Jun 7.1 14:51:16 10° SW 19:40:26 41° SE 23:38:42 13° S visible
30 Jun 10.0 22:17:19 10° WNW 23:25:21 25° W 01:59:00 10° W visible
01 Jul 9.0 18:20:53 10° W 19:23:20 63° SSW 02:16:24 10° SW visible
02 Jul 7.1 14:41:59 10° SW 19:27:27 40° SE 23:32:33 11° S visible
03 Jul 10.1 22:08:12 10° WNW 23:14:48 24° W 01:44:17 10° W visible
04 Jul 8.9 18:11:36 10° W 19:12:42 62° SSW 02:02:35 10° SW visible
05 Jul 7.0 14:32:42 10° WSW 19:14:26 40° SE 23:24:56 10° S visible
